DW6885 Weather Reports


Display with metric or nautical units.
time (UTC)temp
F
wind
direction
speed
MPH
gust
MPH
rain 1hr
in
rain 24hr
in
rain mn
in
humidity
%
barometer
mb
20170222081724 33 250 1.0 3.0 0.00 0.00 0.00 91 1016.2
20170222081223 33 192 0.0 3.0 0.00 0.00 0.00 91 1016.3
20170222081122 33 192 0.0 3.0 0.00 0.00 0.00 91 1016.3
20170222080724 34 241 1.0 7.0 0.00 0.00 0.00 91 1016.4
20170222080224 34 255 1.0 7.0 0.00 0.00 0.00 90 1016.5
20170222075421 33 169 0.0 3.0 0.00 0.00 0.00 90 1016.7
20170222075224 34 169 0.0 3.0 0.00 0.00 0.00 89 1016.6
20170222074223 34 145 1.0 5.0 0.00 0.00 0.00 88 1016.8
20170222073722 34 195 0.0 5.0 0.00 0.00 0.00 87 1016.7
20170222072724 34 204 1.0 6.0 0.00 0.00 0.00 87 1016.8
20170222072223 34 205 1.0 5.0 0.00 0.00 0.00 86 1016.8
20170222072123 33 205 1.0 5.0 0.00 0.00 0.00 86 1016.8
20170222071724 34 265 0.0 3.0 0.00 0.00 0.00 87 1016.9
20170222071223 34 205 2.0 3.0 0.00 0.00 0.00 86 1017.0
20170222070724 34 176 1.0 3.0 0.00 0.00 0.00 86 1017.0
20170222070422 33 197 1.0 6.0 0.00 0.00 0.00 86 1017.0
20170222065223 34 210 1.0 3.0 0.00 0.00 0.00 86 1017.2
20170222064730 33 160 0.0 3.0 0.00 0.00 0.00 86 1017.3
20170222064224 34 160 1.0 3.0 0.00 0.00 0.00 86 1017.5
20170222063723 34 225 0.0 3.0 0.00 0.00 0.00 85 1017.6
20170222063224 34 247 1.0 3.0 0.00 0.00 0.00 85 1017.6
20170222063130 34 247 0.0 3.0 0.00 0.00 0.00 85 1017.7
20170222062723 34 178 0.0 3.0 0.00 0.00 0.00 85 1017.7
20170222062224 34 251 0.0 3.0 0.00 0.00 0.00 84 1017.7
20170222061724 34 246 1.0 3.0 0.00 0.00 0.00 84 1017.8
20170222061423 34 259 0.0 3.0 0.00 0.00 0.00 84 1017.7
20170222061223 34 259 0.0 3.0 0.00 0.00 0.00 84 1017.8
20170222055733 34 182 0.0 6.0 0.00 0.00 0.00 83 1017.9
20170222055723 34 182 1.0 3.0 0.00 0.00 0.00 83 1017.9
20170222055223 34 194 0.0 3.0 0.00 0.00 0.00 83 1017.8
20170222054224 34 209 1.0 3.0 0.00 0.00 0.00 82 1017.6
20170222052723 34 246 1.0 3.0 0.00 0.00 0.00 81 1017.9
20170222052626 34 134 0.0 3.0 0.00 0.00 0.00 81 1017.9
20170222052224 34 226 1.0 8.0 0.00 0.00 0.00 81 1017.7
20170222051724 34 221 1.0 8.0 0.00 0.00 0.00 80 1017.8
20170222051223 34 162 1.0 3.0 0.00 0.00 0.00 80 1017.7
20170222050922 34 331 0.0 6.0 0.00 0.00 0.00 80 1017.8
20170222050723 34 269 1.0 3.0 0.00 0.00 0.00 80 1018.0
20170222045723 34 252 1.0 6.0 0.00 0.00 0.00 79 1018.3
20170222045223 34 300 1.0 6.0 0.00 0.00 0.00 79 1018.2
20170222045122 34 300 0.0 6.0 0.00 0.00 0.00 79 1018.2
20170222044724 34 193 1.0 6.0 0.00 0.00 0.00 79 1018.2
20170222043723 34 192 3.0 6.0 0.00 0.00 0.00 79 1018.3
20170222043526 34 180 1.0 5.0 0.00 0.00 0.00 78 1018.4
20170222042224 35 154 1.0 7.0 0.00 0.00 0.00 77 1018.5
20170222041924 34 126 1.0 7.0 0.00 0.00 0.00 77 1018.6
20170222040234 34 170 1.0 7.0 0.00 0.00 0.00 76 1018.9
20170222040224 35 193 1.0 6.0 0.00 0.00 0.00 76 1018.9
20170222035724 35 210 2.0 6.0 0.00 0.00 0.00 76 1018.9
20170222035223 35 182 2.0 5.0 0.00 0.00 0.00 75 1019.1
20170222034724 35 234 2.0 6.0 0.00 0.00 0.00 75 1019.3
20170222034624 35 234 1.0 7.0 0.00 0.00 0.00 75 1019.3
20170222032924 35 192 1.0 9.0 0.00 0.00 0.00 73 1019.6
20170222032724 35 253 1.0 9.0 0.00 0.00 0.00 73 1019.6
20170222032223 35 227 5.0 9.0 0.00 0.00 0.00 72 1019.6
20170222031230 35 203 2.0 5.0 0.00 0.00 0.00 71 1019.7
20170222030723 35 199 1.0 7.0 0.00 0.00 0.00 70 1019.8
20170222030223 35 228 2.0 8.0 0.00 0.00 0.00 70 1019.9
20170222025723 35 188 3.0 8.0 0.00 0.00 0.00 69 1020.0
20170222025622 35 181 3.0 7.0 0.00 0.00 0.00 69 1020.0
20170222024723 35 210 1.0 6.0 0.00 0.00 0.00 67 1020.1
20170222024223 35 207 1.0 6.0 0.00 0.00 0.00 66 1020.0
20170222023930 35 305 1.0 6.0 0.00 0.00 0.00 66 1020.0
20170222023223 35 187 2.0 6.0 0.00 0.00 0.00 64 1020.2
20170222022723 35 228 0.0 2.0 0.00 0.00 0.00 64 1020.4
20170222022223 35 146 1.0 3.0 0.00 0.00 0.00 63 1020.4
20170222022221 35 278 0.0 4.0 0.00 0.00 0.00 63 1020.4
20170222021723 35 208 0.0 3.0 0.00 0.00 0.00 63 1020.4
20170222021223 35 198 1.0 3.0 0.00 0.00 0.00 61 1020.5
20170222020723 35 210 2.0 3.0 0.00 0.00 0.00 60 1020.7
20170222020625 35 140 2.0 5.0 0.00 0.00 0.00 60 1020.7
20170222015723 35 190 1.0 3.0 0.00 0.00 0.00 60 1020.7
20170222015223 35 176 1.0 3.0 0.00 0.00 0.00 60 1020.9
20170222014922 35 275 1.0 5.0 0.00 0.00 0.00 58 1020.9
20170222014223 35 182 0.0 5.0 0.00 0.00 0.00 58 1020.7
20170222013224 35 296 0.0 4.0 0.00 0.00 0.00 58 1020.9
20170222012224 35 161 0.0 2.0 0.00 0.00 0.00 60 1020.9
20170222011723 35 161 0.0 5.0 0.00 0.00 0.00 60 1020.9
20170222011624 35 161 0.0 2.0 0.00 0.00 0.00 60 1020.9
20170222011223 35 159 0.0 5.0 0.00 0.00 0.00 62 1020.9
20170222010724 35 191 0.0 5.0 0.00 0.00 0.00 59 1021.1
20170222005922 34 218 0.0 3.0 0.00 0.00 0.00 61 1021.3
20170222005223 35 209 0.0 3.0 0.00 0.00 0.00 61 1021.4
20170222004723 34 270 0.0 2.0 0.00 0.00 0.00 61 1021.7
20170222004227 34 274 0.0 2.0 0.00 0.00 0.00 62 1021.8
20170222003723 34 284 0.0 0.0 0.00 0.00 0.00 64 1021.8
20170222002724 34 284 0.0 0.0 0.00 0.00 0.00 64 1021.7
20170222002621 34 284 0.0 0.0 0.00 0.00 0.00 64 1021.7
20170222001723 34 284 0.0 0.0 0.00 0.00 0.00 66 1021.7
20170222001223 35 284 0.0 0.0 0.00 0.00 0.00 63 1021.7
20170222000921 34 284 0.0 0.0 0.00 0.00 0.00 60 1021.7
20170222000724 35 284 0.0 0.0 0.00 0.00 0.00 61 1021.7
20170222000224 34 284 0.0 0.0 0.00 0.00 0.00 63 1021.7
20170221235723 34 284 0.0 0.0 0.00 0.00 0.00 64 1021.7
20170221235422 34 284 0.0 0.0 0.00 0.00 0.00 64 1021.6
20170221235223 35 284 0.0 0.0 0.00 0.00 0.00 65 1021.6
20170221234223 35 284 0.0 1.0 0.00 0.00 0.00 66 1021.7
20170221233621 35 284 0.0 2.0 0.00 0.00 0.00 64 1021.7
20170221233224 35 284 1.0 2.0 0.00 0.00 0.00 65 1021.6
20170221232723 35 191 0.0 1.0 0.00 0.00 0.00 58 1021.1
20170221232122 35 190 0.0 0.0 0.00 0.00 0.00 58 1021.0
20170221231223 36 190 0.0 0.0 0.00 0.00 0.00 56 1021.1
20170221230724 36 190 0.0 0.0 0.00 0.00 0.00 56 1021.2
20170221230425 36 190 0.0 0.0 0.00 0.00 0.00 57 1021.3
20170221230224 37 190 0.0 0.0 0.00 0.00 0.00 60 1021.5
20170221225723 37 190 0.0 0.0 0.00 0.00 0.00 59 1021.8
20170221225223 37 190 0.0 1.0 0.00 0.00 0.00 51 1022.2
20170221224628 37 190 0.0 2.0 0.00 0.00 0.00 49 1022.2
20170221223723 38 190 0.0 3.0 0.00 0.00 0.00 50 1022.3
20170221223223 38 190 0.0 1.0 0.00 0.00 0.00 49 1022.2
20170221223122 38 190 0.0 1.0 0.00 0.00 0.00 48 1022.2
20170221221421 39 190 0.0 3.0 0.00 0.00 0.00 48 1022.5
20170221221223 39 190 1.0 3.0 0.00 0.00 0.00 46 1022.4
20170221220724 40 155 1.0 3.0 0.00 0.00 0.00 47 1022.5
20170221220224 40 245 1.0 3.0 0.00 0.00 0.00 45 1022.5
20170221215723 40 279 0.0 1.0 0.00 0.00 0.00 44 1022.5
20170221215623 40 279 0.0 3.0 0.00 0.00 0.00 44 1022.5
20170221214723 41 213 0.0 3.0 0.00 0.00 0.00 43 1022.3
20170221214223 41 275 0.0 3.0 0.00 0.00 0.00 44 1022.4
20170221214126 40 302 0.0 2.0 0.00 0.00 0.00 44 1022.4
20170221213723 41 297 1.0 2.0 0.00 0.00 0.00 44 1022.4
20170221213223 41 273 0.0 2.0 0.00 0.00 0.00 43 1022.4
20170221212423 41 215 0.0 2.0 0.00 0.00 0.00 43 1022.4
20170221212223 41 215 0.0 2.0 0.00 0.00 0.00 42 1022.4
20170221211223 41 215 0.0 3.0 0.00 0.00 0.00 42 1022.6
20170221210726 41 215 0.0 3.0 0.00 0.00 0.00 41 1022.7
20170221210723 41 215 0.0 3.0 0.00 0.00 0.00 41 1022.7
20170221210223 41 208 2.0 3.0 0.00 0.00 0.00 40 1022.8
20170221205126 41 241 0.0 3.0 0.00 0.00 0.00 40 1022.8
20170221204724 42 193 0.0 3.0 0.00 0.00 0.00 39 1022.8
20170221203724 42 324 2.0 5.0 0.00 0.00 0.00 39 1022.7
20170221203422 41 246 1.0 7.0 0.00 0.00 0.00 40 1022.7
20170221202723 42 358 1.0 6.0 0.00 0.00 0.00 39 1022.7
20170221202226 42 303 1.0 7.0 0.00 0.00 0.00 37 1022.9
20170221201736 42 248 1.0 7.0 0.00 0.00 0.00 37 1023.0
20170221201723 43 257 1.0 7.0 0.00 0.00 0.00 37 1023.0
20170221200726 44 237 0.0 5.0 0.00 0.00 0.00 38 1023.2
20170221200223 44 227 1.0 6.0 0.00 0.00 0.00 34 1023.2
20170221200127 43 226 1.0 4.0 0.00 0.00 0.00 35 1023.2
20170221195722 44 219 0.0 6.0 0.00 0.00 0.00 34 1023.2
20170221195225 44 220 3.0 6.0 0.00 0.00 0.00 34 1023.2
20170221194421 43 246 1.0 4.0 0.00 0.00 0.00 34 1023.2
20170221194223 44 232 1.0 3.0 0.00 0.00 0.00 36 1023.2
20170221193223 44 315 2.0 5.0 0.00 0.00 0.00 36 1023.5
20170221192747 43 344 0.0 3.0 0.00 0.00 0.00 37 1023.7
20170221191223 44 216 1.0 6.0 0.00 0.00 0.00 36 1024.0
20170221191122 43 174 1.0 6.0 0.00 0.00 0.00 36 1024.0
20170221190726 44 241 1.0 3.0 0.00 0.00 0.00 36 1024.2
20170221190223 44 239 1.0 3.0 0.00 0.00 0.00 37 1024.2
20170221185722 44 323 1.0 3.0 0.00 0.00 0.00 36 1024.4
20170221185424 43 323 1.0 7.0 0.00 0.00 0.00 37 1024.4
20170221184223 42 321 0.0 3.0 0.00 0.00 0.00 37 1024.5
20170221183923 42 319 1.0 4.0 0.00 0.00 0.00 37 1024.5
20170221183223 42 260 2.0 5.0 0.00 0.00 0.00 36 1024.5
20170221182225 42 175 1.0 5.0 0.00 0.00 0.00 36 1024.5
20170221182125 42 175 0.0 4.0 0.00 0.00 0.00 36 1024.5
20170221181723 43 162 2.0 5.0 0.00 0.00 0.00 36 1024.6
20170221181223 43 136 1.0 5.0 0.00 0.00 0.00 36 1024.7
20170221180726 42 182 0.0 5.0 0.00 0.00 0.00 36 1024.7
20170221180422 42 208 2.0 5.0 0.00 0.00 0.00 36 1024.8
20170221180223 42 311 2.0 5.0 0.00 0.00 0.00 37 1024.8
20170221175225 42 265 1.0 8.0 0.00 0.00 0.00 38 1024.8
20170221174928 41 217 3.0 8.0 0.00 0.00 0.00 36 1024.9
20170221173122 41 252 2.0 9.0 0.00 0.00 0.00 37 1025.4
20170221172723 41 178 2.0 6.0 0.00 0.00 0.00 38 1025.5
20170221172225 41 220 2.0 6.0 0.00 0.00 0.00 39 1025.7
20170221171723 41 173 1.0 5.0 0.00 0.00 0.00 40 1025.8
20170221171425 40 96 0.0 5.0 0.00 0.00 0.00 41 1025.8
20170221171223 40 311 1.0 5.0 0.00 0.00 0.00 40 1025.9
20170221170726 41 191 1.0 6.0 0.00 0.00 0.00 40 1026.2
20170221170223 41 0 1.0 6.0 0.00 0.00 0.00 39 1026.3
20170221165730 41 208 0.0 5.0 0.00 0.00 0.00 39 1026.3
20170221165722 41 157 1.0 5.0 0.00 0.00 0.00 38 1026.4
20170221164724 41 239 0.0 6.0 0.00 0.00 0.00 40 1026.8
20170221164222 41 205 2.0 6.0 0.00 0.00 0.00 40 1026.7
20170221163725 40 184 2.0 5.0 0.00 0.00 0.00 41 1026.9
20170221163224 39 10 1.0 6.0 0.00 0.00 0.00 40 1026.9
20170221162421 39 243 0.0 4.0 0.00 0.00 0.00 41 1027.0
20170221162222 39 78 2.0 6.0 0.00 0.00 0.00 40 1027.0
20170221161722 39 133 1.0 6.0 0.00 0.00 0.00 42 1027.2
20170221161222 39 150 2.0 6.0 0.00 0.00 0.00 43 1027.3
20170221160922 39 229 0.0 3.0 0.00 0.00 0.00 42 1027.3
20170221160223 39 189 0.0 3.0 0.00 0.00 0.00 42 1027.2
20170221155225 39 181 1.0 3.0 0.00 0.00 0.00 43 1027.3
20170221155127 38 181 1.0 3.0 0.00 0.00 0.00 43 1027.3
20170221154222 38 178 0.0 3.0 0.00 0.00 0.00 46 1027.5
20170221153726 38 174 0.0 5.0 0.00 0.00 0.00 44 1027.6
20170221153622 37 166 0.0 3.0 0.00 0.00 0.00 44 1027.6
20170221152223 37 171 1.0 5.0 0.00 0.00 0.00 47 1027.7
20170221151931 36 171 1.0 4.0 0.00 0.00 0.00 45 1027.7
20170221151223 36 163 2.0 5.0 0.00 0.00 0.00 45 1027.7
20170221150726 35 235 1.0 3.0 0.00 0.00 0.00 47 1027.8
20170221150223 35 184 2.0 3.0 0.00 0.00 0.00 47 1027.7
20170221150122 34 184 1.0 4.0 0.00 0.00 0.00 47 1027.7
20170221145723 34 274 1.0 3.0 0.00 0.00 0.00 48 1028.0
20170221144526 32 238 0.0 3.0 0.00 0.00 0.00 52 1028.0
20170221142933 29 270 1.0 3.0 0.00 0.00 0.00 62 1028.1
20170221142225 28 110 0.0 2.0 0.00 0.00 0.00 68 1028.1
20170221141723 27 110 0.0 2.0 0.00 0.00 0.00 74 1028.3
20170221141223 26 110 0.0 1.0 0.00 0.00 0.00 82 1028.4
20170221141121 26 110 0.0 1.0 0.00 0.00 0.00 82 1028.4
20170221140724 25 110 0.0 1.0 0.00 0.00 0.00 82 1028.6
20170221140223 24 110 0.0 0.0 0.00 0.00 0.00 87 1028.6
20170221135627 23 110 0.0 0.0 0.00 0.00 0.00 88 1028.6
20170221134223 20 110 0.0 0.0 0.00 0.00 0.00 94 1028.6
20170221133922 19 110 0.0 0.0 0.00 0.00 0.00 94 1028.6
20170221133726 19 110 0.0 0.0 0.00 0.00 0.00 94 1028.6
20170221133223 18 110 0.0 0.0 0.00 0.00 0.00 94 1028.4
20170221132121 16 110 0.0 0.0 0.00 0.00 0.00 95 1028.3
20170221131223 15 110 0.0 0.0 0.00 0.00 0.00 94 1028.3
20170221130726 14 110 0.0 0.0 0.00 0.00 0.00 94 1028.4
20170221130624 14 110 0.0 0.0 0.00 0.00 0.00 94 1028.4
20170221125723 13 110 0.0 0.0 0.00 0.00 0.00 94 1028.7
20170221124922 12 110 0.0 0.0 0.00 0.00 0.00 94 1029.2
20170221124723 12 110 0.0 0.0 0.00 0.00 0.00 94 1029.2
20170221123128 11 110 0.0 0.0 0.00 0.00 0.00 93 1029.3
20170221122225 11 110 0.0 0.0 0.00 0.00 0.00 93 1029.4
20170221121623 10 110 0.0 0.0 0.00 0.00 0.00 93 1029.3
20170221120725 11 110 0.0 0.0 0.00 0.00 0.00 92 1029.3
20170221120223 11 110 0.0 0.0 0.00 0.00 0.00 92 1029.3
20170221115923 10 110 0.0 0.0 0.00 0.00 0.00 92 1029.2
20170221115723 11 110 0.0 0.0 0.00 0.00 0.00 92 1029.1
20170221115222 10 110 0.0 0.0 0.00 0.00 0.00 92 1029.0
20170221114230 10 110 0.0 0.0 0.00 0.00 0.00 92 1028.8
20170221114223 11 110 0.0 0.0 0.00 0.00 0.00 92 1028.8
20170221113724 11 110 0.0 0.0 0.00 0.00 0.00 92 1028.7
20170221113223 11 110 0.0 0.0 0.00 0.00 0.00 92 1028.6
20170221112722 11 110 0.0 0.0 0.00 0.00 0.00 92 1028.6
20170221112622 11 110 0.0 0.0 0.00 0.00 0.00 92 1028.6
20170221112222 11 110 0.0 0.0 0.00 0.00 0.00 92 1028.6
20170221111723 11 110 0.0 0.0 0.00 0.00 0.00 92 1028.7
20170221111223 11 110 0.0 0.0 0.00 0.00 0.00 92 1028.6
20170221110926 11 110 0.0 0.0 0.00 0.00 0.00 92 1028.6
20170221110223 11 110 0.0 0.0 0.00 0.00 0.00 92 1028.5
20170221105723 11 110 0.0 0.0 0.00 0.00 0.00 92 1028.6
20170221105228 11 110 0.0 0.0 0.00 0.00 0.00 92 1028.5
20170221105223 12 110 0.0 0.0 0.00 0.00 0.00 92 1028.5
20170221103621 11 110 0.0 0.0 0.00 0.00 0.00 92 1028.4
20170221102723 12 110 0.0 0.0 0.00 0.00 0.00 92 1028.4
20170221102225 12 110 0.0 0.0 0.00 0.00 0.00 92 1028.4
20170221101922 12 110 0.0 0.0 0.00 0.00 0.00 92 1028.4
20170221101723 12 110 0.0 0.0 0.00 0.00 0.00 92 1028.3
20170221101223 12 110 0.0 0.0 0.00 0.00 0.00 92 1028.2
20170221100233 12 110 0.0 0.0 0.00 0.00 0.00 92 1028.2
20170221095722 12 110 0.0 0.0 0.00 0.00 0.00 92 1028.4
20170221094723 13 110 0.0 0.0 0.00 0.00 0.00 92 1028.3
20170221094622 12 110 0.0 0.0 0.00 0.00 0.00 92 1028.3
20170221092923 12 110 0.0 0.0 0.00 0.00 0.00 92 1028.2
20170221092723 13 110 0.0 0.0 0.00 0.00 0.00 92 1028.2
20170221092222 13 110 0.0 0.0 0.00 0.00 0.00 92 1028.3
20170221091231 13 110 0.0 0.0 0.00 0.00 0.00 92 1028.3
20170221090726 13 110 0.0 0.0 0.00 0.00 0.00 92 1028.3
20170221090223 13 110 0.0 0.0 0.00 0.00 0.00 92 1028.4
20170221085723 13 110 0.0 0.0 0.00 0.00 0.00 92 1028.4
20170221085621 13 110 0.0 0.0 0.00 0.00 0.00 92 1028.4
20170221084223 13 110 0.0 0.0 0.00 0.00 0.00 91 1028.4
20170221083921 13 110 0.0 0.0 0.00 0.00 0.00 91 1028.4
20170221083725 13 110 0.0 0.0 0.00 0.00 0.00 91 1028.5
20170221083223 14 110 0.0 0.0 0.00 0.00 0.00 91 1028.6